Theta_e
322 323 323 324 325 325 325 326 326 327 327 328 328 328 329 328 327 327 327 327 327 327 327 327 327 329 329 329 329 327 322 309 313 313 310 310 324 335 335 338 338 337 329 321 318 309 308 306 305 306 307 308 306 306 308 309 308 303 296 291 288 291 292 293 296 296 298 296 296 297 296 296 295 297 299 299 299 298 298 299 299 301 299 300 302 302 303 302
321 321 322 323 324 324 325 325 326 326 326 326 327 327 328 327 327 327 327 327 327 326 327 327 327 328 329 328 326 323 316 316 312 311 311 333 336 338 338 339 336 336 326 316 313 307 306 304 303 305 304 304 310 303 308 305 309 299 294 292 289 290 294 298 299 297 297 296 295 295 295 296 296 296 297 297 294 295 295 296 298 298 298 300 300 300 301 301
321 321 321 322 322 323 324 324 325 325 325 325 326 326 327 326 327 327 327 327 327 326 326 327 327 328 328 329 326 323 317 312 313 307 310 334 336 338 336 337 337 335 318 314 312 308 305 305 304 303 304 301 305 302 307 304 306 300 297 291 292 295 297 300 298 299 298 298 297 297 297 295 297 297 298 296 294 294 294 295 295 296 298 296 298 298 299 299
320 321 321 321 322 322 323 323 324 324 325 325 326 326 326 326 326 327 327 326 326 327 326 326 327 327 327 327 327 318 319 313 305 308 311 332 335 335 336 337 336 333 322 314 312 309 307 305 304 304 303 300 299 306 302 303 300 298 296 292 293 296 297 297 298 298 297 298 298 297 296 296 296 296 297 294 294 294 296 297 298 297 298 297 298 297 297 298
320 320 320 320 321 321 322 322 323 323 324 325 325 325 325 326 326 325 326 326 326 326 326 326 326 327 327 327 324 317 315 295 300 313 319 331 333 333 336 338 334 320 318 313 307 306 306 304 303 304 303 296 299 302 300 302 303 300 296 298 297 297 297 300 297 297 297 296 297 295 295 295 297 297 296 295 294 296 296 298 299 300 300 298 298 297 297 297
319 319 320 320 320 321 321 321 322 323 323 324 324 324 324 325 325 325 326 326 326 326 326 326 326 326 327 326 314 317 302 287 310 318 326 327 331 333 333 330 333 323 315 310 306 305 305 304 303 301 298 297 295 296 296 302 304 296 297 297 298 299 298 300 299 297 296 297 296 295 295 297 297 295 295 296 297 300 298 298 299 300 301 301 300 298 297 297
318 318 319 319 319 320 320 321 321 322 323 323 323 324 324 324 325 325 325 325 326 326 326 326 325 326 325 324 313 316 303 302 317 317 323 328 331 332 331 332 326 316 309 304 304 304 303 302 302 298 299 297 296 296 299 299 302 301 297 295 297 297 297 299 299 296 295 296 295 295 297 296 295 294 295 296 300 301 300 299 298 298 299 299 298 298 298 297
318 318 318 318 318 319 320 321 321 321 322 322 323 323 323 324 324 324 324 325 325 325 325 325 326 326 323 319 315 305 304 301 309 316 324 327 326 322 324 315 312 311 307 303 302 301 302 301 300 301 298 297 296 298 299 299 299 297 296 296 297 297 298 297 295 294 294 295 294 297 295 295 295 295 294 297 300 300 299 299 301 300 297 297 299 298 298 298
319 319 318 319 318 318 319 319 320 320 321 322 322 322 323 323 323 323 325 324 325 324 325 326 325 326 322 315 307 301 299 310 312 314 318 319 316 315 313 310 310 306 304 303 302 303 304 300 301 301 295 298 299 298 297 297 293 295 298 297 295 296 296 296 296 296 295 296 295 295 295 295 294 296 295 299 300 301 298 297 298 299 299 297 297 298 298 298
319 319 319 319 318 318 318 319 319 320 320 321 322 322 322 322 322 323 324 325 324 324 324 325 325 324 316 308 304 294 303 311 312 314 315 312 309 308 308 309 308 308 305 303 303 302 302 300 305 306 305 298 299 297 299 297 294 296 295 295 295 296 295 296 296 298 296 295 294 295 295 294 295 296 293 299 300 299 298 299 299 297 298 298 298 298 298 299
320 319 320 318 318 318 318 318 318 319 320 321 321 321 322 322 322 323 323 324 323 323 324 324 324 318 312 311 303 296 310 313 309 307 310 309 308 304 306 311 309 308 306 303 302 301 302 304 308 305 303 297 299 296 297 297 297 297 295 295 297 296 296 296 296 296 295 296 295 296 295 293 293 294 295 300 297 297 296 297 297 298 298 298 297 297 298 298
319 319 319 318 318 318 318 318 318 319 320 320 320 321 321 322 322 322 322 323 323 323 324 322 320 316 312 309 302 301 310 312 308 307 308 307 311 310 312 307 306 311 308 303 304 309 309 308 307 302 295 301 294 297 296 297 297 296 295 292 295 295 295 298 297 298 295 295 294 295 294 292 292 292 298 300 300 298 297 296 296 297 298 298 298 297 297 298
320 319 319 318 318 318 318 319 318 319 319 320 320 320 321 321 321 322 322 322 322 323 324 324 320 315 313 300 305 312 307 308 309 310 312 310 309 310 308 310 308 308 308 306 307 311 309 308 307 301 300 300 296 295 297 297 296 297 294 292 293 292 290 297 297 297 294 294 295 296 286 289 293 295 298 300 297 297 295 296 297 297 297 298 298 298 298 298
320 320 319 318 318 318 319 319 319 319 319 319 320 320 321 321 321 322 322 321 323 323 324 324 315 314 306 298 310 308 310 310 311 311 309 312 307 307 313 312 311 310 309 308 309 307 309 305 305 301 304 299 296 301 298 295 296 291 292 293 288 286 287 295 295 293 292 294 295 296 288 291 294 296 296 297 297 296 295 296 296 297 297 297 297 298 298 299
321 319 319 318 318 319 319 319 319 319 319 319 320 320 320 320 321 321 322 321 322 324 326 323 313 309 299 303 309 310 327 308 308 308 309 308 309 308 310 311 311 309 306 308 307 307 305 308 304 300 295 298 301 297 291 291 291 291 289 285 285 287 288 294 294 293 293 293 294 295 287 291 295 296 298 296 295 295 295 295 295 296 297 297 298 297 298 299
320 320 319 319 318 319 319 318 318 319 319 319 319 320 320 320 320 321 321 321 323 324 318 314 314 309 298 295 306 320 310 303 304 307 307 310 309 306 307 307 308 308 305 304 306 304 304 305 298 295 297 298 296 289 289 287 287 289 289 286 286 285 288 291 293 293 295 291 292 295 289 290 291 294 297 295 294 294 294 295 295 295 296 297 297 298 298 299
320 319 319 319 319 319 319 318 318 318 319 319 319 319 320 320 320 321 323 322 319 319 316 313 310 308 294 303 308 304 303 305 310 309 307 308 312 310 307 305 304 305 305 303 305 305 304 301 300 297 299 294 289 290 285 283 284 286 287 285 287 287 287 287 291 292 291 294 290 292 289 292 296 292 292 292 294 293 293 295 295 296 296 296 297 297 298 298
320 319 319 319 320 320 318 318 318 319 319 319 318 319 317 320 323 321 318 316 316 315 313 318 309 300 299 304 300 300 307 307 307 308 306 304 309 307 305 302 305 301 304 301 303 299 301 296 296 290 292 292 291 288 285 282 285 284 285 285 287 288 289 290 289 291 292 291 290 289 289 291 293 295 295 296 295 293 293 295 295 296 296 296 296 297 297 298
320 320 319 320 321 319 318 318 319 319 319 319 320 319 320 322 315 312 312 313 305 297 295 298 300 291 291 299 303 304 311 310 308 307 305 304 308 308 305 303 303 299 297 296 295 298 298 295 297 291 288 290 290 291 289 290 289 287 288 288 286 286 288 289 293 292 293 289 289 289 289 291 292 293 295 296 296 295 294 293 294 295 296 297 297 297 297 297
320 319 319 319 320 320 318 319 320 320 320 316 312 310 307 302 300 301 303 308 302 297 298 300 304 300 302 301 303 307 311 308 304 304 305 307 306 304 303 301 302 301 294 292 294 294 296 289 288 288 291 292 292 292 293 293 292 291 289 287 288 288 289 293 293 292 291 290 289 291 291 291 293 294 295 296 295 293 293 293 294 295 296 297 298 298 298 298
318 318 319 319 319 320 320 320 320 320 319 314 309 305 296 297 293 293 291 296 304 303 300 299 303 302 301 303 303 303 302 301 303 303 304 310 304 302 297 298 298 293 294 294 293 296 296 288 288 292 294 294 292 293 293 292 292 290 289 288 288 287 288 293 294 292 290 291 288 290 290 291 292 294 295 294 291 293 295 294 293 294 295 296 297 297 298 298
318 318 318 318 319 319 320 319 320 320 319 311 308 305 303 299 302 302 293 292 296 300 303 302 300 300 301 303 304 304 302 299 300 302 307 306 301 298 296 296 293 292 293 294 293 290 290 288 291 293 295 293 292 291 291 291 290 290 288 288 286 287 290 293 293 293 290 289 289 289 287 289 291 293 294 293 293 295 296 296 297 296 296 297 297 297 298 297
319 318 318 318 318 319 319 319 319 319 310 306 303 303 302 302 303 303 301 296 296 300 298 299 299 299 300 302 304 303 298 297 297 301 303 304 299 297 296 293 292 292 292 293 290 288 286 289 294 295 295 294 294 293 291 290 290 289 288 286 286 290 287 287 288 288 289 289 283 283 285 288 290 292 293 294 294 295 297 297 297 297 296 296 297 298 298 296
318 318 318 318 319 318 319 319 319 311 306 304 303 302 304 302 302 302 301 294 291 295 297 298 299 299 299 299 302 302 299 297 297 296 306 302 297 297 295 293 291 291 291 292 292 290 289 290 295 295 295 294 293 293 290 287 288 290 290 289 288 288 290 289 289 287 287 288 288 286 286 288 289 290 293 295 295 295 296 296 296 297 297 298 299 298 298 298
318 318 318 318 318 318 319 319 309 306 307 304 302 303 302 301 301 303 299 294 292 293 301 301 301 300 300 302 303 301 298 298 296 300 305 303 297 295 293 295 292 290 291 292 292 290 290 293 293 293 293 293 292 290 289 288 287 289 290 290 291 291 289 290 289 288 285 284 286 287 283 285 288 290 292 293 289 290 293 293 294 295 296 296 296 297 297 296
318 318 318 318 319 319 320 309 304 309 306 302 303 303 302 301 301 301 297 287 283 292 296 294 303 297 305 298 301 299 295 293 298 300 304 302 304 297 295 292 294 290 291 290 291 290 291 293 295 293 291 290 290 289 288 291 289 288 286 290 292 290 289 286 286 287 281 280 286 287 280 282 284 286 288 288 289 291 291 292 294 294 295 295 296 297 296 294
319 318 318 319 320 318 307 302 308 309 302 303 303 304 301 303 304 300 293 283 282 293 292 299 298 298 305 300 298 295 287 288 301 302 301 303 301 304 293 290 293 293 293 293 288 286 292 290 291 293 292 290 288 287 291 291 289 287 287 288 288 288 287 287 287 287 285 283 285 287 282 281 284 286 289 290 290 290 291 292 293 294 295 295 296 297 296 294
319 318 318 319 320 317 307 308 308 304 304 305 306 304 303 303 303 301 288 277 278 297 294 293 299 305 302 299 301 295 290 295 292 296 296 298 300 299 294 292 292 290 292 291 284 293 290 289 288 290 288 288 288 292 291 293 291 288 286 288 289 289 287 287 286 283 281 281 281 282 284 281 283 285 291 291 288 289 290 292 293 295 296 296 296 297 297 295
319 318 318 319 320 319 317 309 306 305 308 307 306 305 305 301 297 293 282 277 291 293 302 295 306 302 297 298 296 292 292 293 291 293 296 300 300 296 291 292 292 291 290 291 289 290 292 291 290 291 289 287 290 285 290 293 289 289 289 287 287 286 285 286 284 284 279 277 280 281 284 281 283 288 285 286 287 288 289 292 293 295 296 296 296 296 297 295
319 319 319 319 318 315 313 313 309 309 307 306 306 304 304 300 293 286 280 274 294 288 295 296 294 293 294 292 291 294 291 290 291 293 295 294 296 298 295 296 294 291 289 291 288 289 291 291 294 292 289 291 285 286 286 287 291 289 289 288 282 281 281 279 280 279 280 277 281 283 284 285 281 284 286 285 285 289 291 290 292 294 294 296 295 295 296 296
320 319 318 318 314 314 313 308 311 309 308 306 307 308 305 296 285 280 277 285 294 293 295 292 291 295 291 290 288 292 293 289 290 292 291 294 292 293 291 292 292 285 283 283 287 290 290 291 290 288 291 288 287 287 286 287 288 289 285 282 283 283 278 279 276 279 275 278 280 284 284 285 279 280 284 289 288 291 292 291 293 293 294 296 295 294 295 295
319 319 319 317 317 318 310 309 310 310 309 309 309 305 300 286 289 281 282 295 287 290 289 288 292 290 290 291 290 288 289 290 289 290 289 285 285 288 288 287 285 280 280 281 283 284 286 288 289 292 292 293 287 288 283 281 284 286 282 284 280 275 276 272 273 272 271 278 278 281 284 280 282 287 284 287 287 288 290 293 293 293 293 294 294 294 294 292
319 318 318 317 317 315 315 314 312 310 309 310 306 304 293 285 280 289 286 291 287 291 290 293 290 292 290 289 288 290 291 288 290 289 290 287 286 287 289 288 287 285 284 281 283 282 284 285 288 289 290 292 291 286 282 282 283 284 284 281 277 273 271 269 269 270 273 278 279 281 283 283 286 284 291 292 293 291 292 292 293 293 293 293 293 293 292 290
319 318 315 316 317 318 317 312 310 310 309 307 301 294 289 283 284 294 290 289 292 295 297 295 292 292 290 289 288 291 286 291 289 289 291 286 285 283 285 289 288 287 287 284 283 280 280 285 286 288 286 290 293 292 290 289 282 286 284 286 283 279 270 268 273 276 278 280 277 281 279 276 276 282 288 294 296 294 292 293 293 292 292 292 289 291 290 288
317 318 318 317 315 318 315 312 311 311 308 303 296 290 283 284 287 285 286 287 291 295 293 294 292 289 288 289 291 292 292 288 290 289 288 288 284 282 283 286 290 289 284 283 285 282 286 286 287 294 288 290 290 293 292 284 284 282 283 286 280 280 281 281 283 278 277 275 277 275 280 277 283 287 288 289 290 291 291 292 291 291 291 290 290 292 290 288
315 315 318 314 313 316 315 311 311 311 306 299 290 285 285 289 285 289 289 297 297 295 293 291 291 287 284 285 287 291 296 289 290 289 287 288 289 285 287 287 289 291 289 286 287 282 284 282 287 290 288 289 287 289 291 291 280 282 285 280 285 285 286 281 281 280 277 276 279 278 280 284 286 290 291 293 291 291 290 290 288 290 292 291 291 291 288 288
312 315 310 313 314 317 315 311 311 308 304 297 289 285 291 290 297 293 296 294 293 297 293 287 288 289 286 285 285 289 292 294 290 287 284 288 286 289 287 290 292 292 294 293 285 290 286 287 289 288 287 288 284 287 288 287 287 283 279 283 287 286 283 281 274 273 274 274 279 282 280 282 280 280 283 286 288 287 288 289 291 291 291 291 292 288 289 288
312 312 312 312 315 317 314 312 310 306 301 294 287 291 293 291 297 297 297 296 298 298 293 289 290 294 287 287 286 290 292 291 290 288 284 289 285 293 290 289 293 293 294 296 291 289 291 284 289 288 287 288 288 289 288 288 288 283 281 286 285 278 277 280 277 277 276 276 278 281 282 281 283 284 286 286 285 287 289 291 291 291 292 292 290 286 286 285
311 309 304 311 316 316 312 312 308 302 297 290 288 289 295 295 297 294 295 296 297 294 291 292 290 292 292 288 290 292 292 288 290 288 287 288 287 293 291 294 292 295 295 295 290 289 290 285 286 286 288 287 285 285 282 284 287 286 287 283 283 281 277 276 282 277 279 278 278 279 282 280 287 284 287 285 287 288 289 288 289 291 292 293 291 288 288 286
307 304 302 312 315 314 312 310 303 300 294 288 290 290 296 291 297 297 298 299 296 294 292 291 292 289 291 291 291 288 290 292 290 289 289 290 291 296 292 295 293 294 295 295 292 294 287 291 283 286 285 287 283 284 282 285 284 284 284 281 282 280 281 281 281 279 279 276 277 276 276 282 288 285 286 286 285 287 288 289 290 291 291 291 290 290 287 286
308 303 302 312 313 313 311 305 297 292 291 290 293 292 293 292 296 295 298 299 296 302 296 294 292 291 290 287 289 291 287 288 289 287 289 289 290 288 294 294 295 292 295 294 292 291 287 285 285 283 282 282 286 287 287 288 289 286 287 285 286 282 279 278 278 283 278 279 276 276 277 283 290 289 290 289 286 287 288 290 290 290 291 288 286 284 285 286
303 294 300 311 312 312 304 294 292 294 290 290 291 294 292 300 295 295 296 298 297 296 298 293 293 291 290 290 291 290 289 287 288 287 288 288 292 291 293 297 296 295 291 286 290 294 290 285 285 283 286 287 288 289 289 291 290 288 288 285 287 284 284 281 278 280 281 280 283 283 280 282 294 293 291 290 288 286 288 288 289 290 289 287 287 286 285 285
299 297 308 310 312 309 302 294 294 291 288 291 296 294 296 294 295 296 296 297 294 298 293 293 294 293 293 292 292 290 292 286 288 287 290 290 292 295 297 298 298 296 294 288 292 289 293 287 282 285 287 286 288 289 288 288 287 285 286 286 285 282 284 283 283 284 283 283 282 281 279 283 293 295 294 293 288 286 288 288 289 289 287 285 284 284 285 285
295 296 300 309 312 308 299 288 288 289 290 293 292 292 296 295 295 293 294 296 294 293 294 293 294 297 294 295 292 290 293 285 289 290 288 292 290 299 299 299 300 296 293 290 290 292 286 284 283 279 280 282 284 287 286 286 287 284 283 286 288 288 287 286 286 285 282 282 283 280 275 282 291 295 293 293 293 288 288 287 287 290 285 283 284 285 286 287
297 300 300 304 308 305 294 297 294 291 291 291 291 290 290 290 293 295 295 294 296 294 292 291 296 295 292 294 292 293 294 292 288 291 290 289 291 295 297 297 299 296 298 296 295 295 288 285 283 278 276 275 275 276 278 281 282 282 285 287 288 288 287 285 281 283 279 283 284 281 280 286 292 293 293 293 293 292 290 290 288 286 286 287 286 286 286 285
293 284 293 297 302 300 300 302 298 294 290 290 289 291 293 290 293 295 295 294 297 295 296 293 291 295 293 291 289 290 290 293 291 286 288 285 287 289 294 295 296 295 297 297 294 293 285 286 286 284 282 280 283 284 287 284 282 281 283 285 287 288 288 287 286 283 280 283 282 284 285 285 287 289 291 292 293 293 293 295 293 291 289 288 288 287 287 288
295 289 290 288 297 297 295 298 296 296 292 295 287 291 289 290 291 292 296 290 294 294 293 294 293 291 289 291 290 290 291 290 291 290 288 287 288 289 291 292 293 294 295 294 294 292 285 284 286 286 285 286 287 288 290 290 286 287 286 285 286 285 286 285 283 281 287 283 279 286 287 285 286 290 291 292 293 294 295 294 294 293 292 291 290 288 289 287
287 290 293 294 291 286 290 290 296 294 295 296 291 293 290 290 289 287 292 295 294 293 289 290 294 294 293 291 291 288 288 289 289 287 290 289 289 290 290 292 291 293 293 290 293 290 285 284 286 286 285 287 288 289 289 289 288 288 288 287 286 287 286 283 283 286 286 282 280 286 287 285 287 290 292 293 294 294 295 295 295 294 291 289 287 286 287 289
292 290 290 294 288 291 289 290 291 292 291 292 287 291 290 291 289 291 290 288 292 289 294 287 291 293 293 294 292 289 290 286 285 290 288 288 287 287 286 287 291 292 291 289 288 288 287 284 287 287 285 286 287 287 288 287 287 287 287 287 288 287 286 287 286 287 286 284 286 287 287 287 290 291 292 294 295 295 296 296 294 292 291 292 289 287 289 291
285 288 284 290 289 287 287 287 289 289 286 291 287 287 290 289 288 291 292 291 286 289 295 291 292 293 293 292 292 289 290 292 290 287 287 286 287 288 287 289 288 286 288 287 288 286 288 283 290 286 284 284 286 287 287 287 286 285 286 287 287 287 287 287 287 287 287 286 287 286 285 285 291 294 293 295 296 296 295 293 293 293 294 293 291 290 291 291
292 293 293 286 283 284 284 283 285 286 286 288 287 288 291 290 289 292 290 293 291 289 291 290 292 290 289 289 290 290 293 290 289 289 291 290 285 290 287 284 291 287 285 284 286 285 287 284 289 286 282 281 285 285 285 286 285 285 285 286 286 285 284 285 285 287 286 284 286 285 283 284 290 293 294 294 294 293 292 293 293 294 294 293 291 291 292 292
292 293 295 290 282 286 283 282 282 283 281 286 288 288 289 288 290 290 286 292 293 293 292 289 288 287 285 287 286 288 287 287 289 291 291 292 293 294 295 293 293 289 285 285 287 284 285 285 284 284 281 280 286 286 285 285 283 280 281 285 287 287 288 288 289 289 289 289 285 283 284 290 292 293 291 292 292 292 292 292 293 293 293 292 292 292 292 292
Wind_Speed
15 16 16 16 16 16 16 16 16 16 17 16 16 15 14 13 13 11 11 10 10 11 11 11 11 9 8 8 8 7 6 1 1 1 1 6 2 5 8 10 9 9 7 4 2 3 1 1 1 3 1 1 2 1 3 1 1 2 1 2 3 5 1 4 3 2 1 1 2 1 4 3 2 1 1 1 1 1 1 3 3 3 1 1 2 5 10 13
15 15 16 16 17 17 17 16 17 17 16 17 16 16 15 15 14 12 12 11 10 11 11 11 11 10 8 7 7 6 3 0 4 4 12 3 5 4 7 8 9 10 6 4 5 3 2 2 4 1 2 1 0 2 2 1 1 3 1 2 7 3 7 3 2 4 0 2 3 5 4 5 6 4 1 1 3 2 5 5 3 5 2 5 6 9 11 13
15 15 16 16 17 17 17 17 17 17 17 17 17 16 15 15 14 14 13 12 11 11 10 10 11 10 8 7 7 4 3 1 2 8 2 6 6 4 2 5 8 8 3 3 4 3 3 1 1 4 2 1 1 3 0 2 1 4 2 5 7 6 4 6 3 1 1 2 0 1 2 4 2 3 1 3 6 1 8 7 2 7 11 6 5 7 10 11
15 16 16 16 16 17 17 18 17 17 17 18 18 18 17 16 15 16 15 14 14 11 10 10 10 9 7 7 6 3 1 1 2 2 1 2 5 6 4 4 4 5 2 1 3 1 0 2 0 5 1 3 3 1 2 4 2 2 3 5 6 4 1 5 3 1 0 1 0 0 1 0 3 4 4 2 2 9 12 9 11 12 14 10 10 10 10 11
16 16 16 17 17 18 17 18 18 17 18 18 18 18 18 17 16 16 15 15 15 14 13 12 11 10 7 5 7 2 2 3 2 0 1 2 5 5 6 6 4 4 4 2 1 0 1 1 1 1 1 3 1 1 4 4 5 3 9 7 8 5 5 9 4 4 1 2 0 1 2 5 1 1 4 4 9 14 7 8 11 12 10 10 11 13 10 12
15 16 16 17 18 18 18 18 18 18 18 18 17 18 18 18 17 17 16 15 16 15 14 13 12 9 5 3 1 1 1 1 1 0 0 2 2 4 5 5 4 3 1 2 1 0 1 2 1 0 1 1 3 4 5 7 4 6 4 5 7 7 5 4 3 3 1 0 1 1 3 0 2 4 4 7 14 15 3 6 9 10 11 11 16 14 12 13
14 16 16 17 18 19 19 19 19 19 19 19 18 18 18 18 17 17 17 16 15 15 15 14 12 8 6 1 1 2 2 5 1 3 3 2 2 2 3 2 3 2 2 3 1 1 2 2 1 3 1 2 6 4 8 3 5 8 9 1 6 4 7 7 8 6 4 5 5 3 1 2 2 7 3 8 17 18 6 3 4 5 3 6 10 14 18 19
13 15 16 17 18 19 19 19 19 19 20 20 19 19 18 18 17 17 16 16 16 16 15 15 11 10 6 2 0 1 1 6 4 2 5 3 2 2 1 1 2 2 2 5 6 3 2 3 5 1 3 6 3 2 2 1 0 5 8 4 6 5 6 5 4 3 5 6 4 2 4 8 6 6 5 14 17 11 8 6 10 7 2 6 12 15 15 14
8 10 14 15 17 18 19 20 20 20 20 20 19 19 19 19 19 18 17 17 16 17 15 14 11 6 4 0 3 2 6 3 4 5 5 4 4 0 2 1 0 3 1 2 4 4 3 3 3 3 4 1 1 4 3 1 7 5 9 2 4 5 5 6 8 8 7 4 4 3 10 9 6 5 12 25 21 14 5 6 8 8 9 8 11 15 16 16
7 10 12 15 16 18 18 19 20 20 20 20 20 19 19 19 19 18 17 17 16 16 15 12 11 8 1 2 2 1 6 4 3 6 6 6 4 3 2 1 2 1 0 3 2 3 4 4 3 3 1 3 2 5 0 2 6 1 3 4 6 8 6 6 7 10 5 5 5 8 11 7 1 5 12 14 14 5 7 11 10 8 11 12 9 11 14 16
7 10 11 14 16 16 18 18 18 19 20 20 21 20 19 19 19 18 17 17 16 16 13 11 7 3 0 1 3 7 2 4 2 5 7 7 5 5 3 1 1 1 2 4 3 5 4 3 2 2 1 5 1 5 0 3 1 3 1 8 11 7 7 10 8 15 3 7 9 9 10 3 2 3 16 26 3 3 6 9 8 9 11 11 11 11 11 13
9 10 10 13 14 15 16 16 17 17 19 21 20 20 20 19 20 19 16 15 16 15 10 8 8 3 0 1 5 7 3 3 4 4 5 5 3 6 4 4 1 2 2 2 3 2 1 3 3 2 5 1 2 2 4 1 1 1 2 6 12 6 9 15 11 12 5 8 7 6 2 10 4 9 24 23 10 6 7 7 7 9 12 12 10 10 9 14
6 9 11 12 14 14 13 15 16 18 18 19 20 20 20 20 20 19 17 14 12 16 12 7 4 2 0 3 9 3 2 1 4 5 2 3 2 1 1 2 3 3 3 2 2 1 1 0 2 2 3 0 1 2 1 1 4 1 1 3 11 8 8 20 4 9 6 4 11 8 5 10 13 20 21 20 8 7 6 12 11 9 10 10 10 11 13 12
7 4 11 12 13 14 13 14 16 17 18 18 20 21 20 21 20 19 18 15 15 14 9 3 0 1 0 6 2 3 2 2 4 4 3 3 4 1 1 1 1 2 3 3 3 2 0 1 3 3 0 3 3 2 4 3 0 4 2 1 6 5 8 8 3 1 4 2 11 7 5 13 13 14 14 15 8 9 12 13 12 11 10 9 10 11 13 15
6 3 10 12 13 13 13 15 16 16 17 19 19 20 21 23 21 18 17 15 9 5 4 2 1 1 1 7 1 5 2 2 4 4 5 6 4 1 3 1 1 1 3 4 2 1 1 3 3 0 2 1 0 3 5 1 2 2 2 8 3 7 9 12 3 2 5 1 5 8 4 15 19 14 13 8 6 8 12 13 12 11 11 11 10 11 13 15
4 7 11 13 14 13 13 14 15 15 17 18 18 19 21 20 19 18 15 12 13 5 1 1 1 1 1 7 1 2 1 3 5 5 4 6 5 4 4 4 0 1 2 0 2 1 1 3 2 4 0 1 1 2 1 6 6 2 8 8 9 3 8 9 6 5 9 4 3 13 10 7 13 12 15 8 5 7 10 11 10 11 12 12 11 11 12 13
4 8 10 10 14 13 13 14 14 16 16 17 21 21 21 20 17 15 12 5 2 1 2 2 1 3 2 1 2 2 5 4 1 1 1 1 3 4 6 2 1 1 2 1 1 2 0 1 0 2 0 4 4 4 1 4 9 8 1 7 6 7 4 5 5 0 4 11 6 9 6 13 15 5 7 7 2 4 6 11 12 11 10 11 11 12 13 14
6 9 11 11 14 13 14 14 15 16 17 18 19 20 18 22 16 2 2 2 1 2 2 1 1 1 9 1 7 7 1 4 3 3 3 0 1 3 3 1 0 3 2 1 1 3 1 1 1 6 1 3 3 4 7 11 13 5 2 5 8 7 9 13 7 2 5 3 6 7 10 16 18 15 13 15 8 4 7 10 11 12 12 12 11 13 14 14
8 9 10 12 12 13 13 14 15 17 17 21 21 22 15 1 4 0 2 1 3 2 1 2 4 5 7 7 3 4 2 3 4 6 3 3 0 1 0 1 4 5 2 2 3 6 0 1 2 2 8 8 11 12 14 17 3 4 6 8 5 6 8 10 10 3 10 5 7 9 12 17 21 20 17 16 13 12 12 7 9 11 12 12 13 15 12 12
8 10 11 12 12 13 14 14 16 17 18 15 11 8 2 3 1 1 2 0 4 7 3 6 11 2 3 2 4 0 0 3 4 5 2 2 6 2 0 1 2 1 4 5 0 5 5 8 8 9 14 15 8 10 15 13 8 10 7 7 11 11 11 12 12 6 5 3 10 15 16 16 18 18 17 15 10 9 11 11 12 12 13 14 16 16 15 15
9 10 11 12 12 12 14 17 18 18 18 8 7 2 3 1 1 4 4 7 10 9 9 5 14 12 7 2 3 6 4 4 1 1 5 3 3 8 4 3 1 3 7 5 6 2 5 7 9 14 18 12 7 11 11 11 9 11 10 9 13 6 14 14 11 2 4 6 6 11 15 16 18 19 16 9 6 13 15 14 13 15 14 14 18 18 17 18
8 10 11 12 13 14 15 17 19 19 17 3 2 4 1 2 0 1 0 7 5 10 12 13 5 7 2 4 5 5 2 2 3 3 3 5 5 9 3 7 6 12 3 2 4 2 7 11 12 18 11 5 6 6 7 10 9 9 10 11 9 9 12 13 9 8 5 5 13 9 12 15 17 17 15 11 12 12 13 14 17 14 15 14 17 17 18 14
8 10 10 11 12 13 13 16 17 19 3 5 3 2 1 0 0 1 1 3 9 8 7 7 10 11 11 3 3 4 6 11 13 7 8 6 4 7 5 7 9 2 4 7 11 7 8 8 16 10 7 10 11 8 7 7 8 9 10 9 13 9 6 14 4 0 3 8 4 4 10 10 11 13 16 15 12 14 16 16 17 15 14 16 20 18 16 12
11 11 10 10 11 13 14 14 17 5 3 4 1 2 1 1 0 2 2 3 5 5 9 11 12 7 12 11 5 10 13 5 5 7 3 9 11 4 3 10 6 5 11 13 17 15 17 5 10 12 11 12 15 12 6 7 12 11 13 12 10 10 13 12 10 2 2 5 4 8 11 13 11 17 16 15 15 14 15 14 16 16 13 16 18 13 15 17
12 10 11 11 10 12 13 13 3 4 5 2 2 1 3 2 2 1 0 5 2 5 3 4 6 4 7 5 3 8 3 4 5 1 8 10 7 3 5 2 3 12 11 12 11 13 16 8 3 6 9 11 11 10 7 7 12 15 12 11 17 14 13 12 9 7 5 6 3 2 9 13 10 19 20 10 3 7 11 13 16 17 15 13 19 17 15 10
12 11 11 9 8 10 11 2 2 6 4 1 0 1 2 2 2 2 0 2 7 3 3 5 2 4 2 2 3 4 5 6 1 3 7 5 2 4 2 4 5 12 10 7 11 6 7 6 9 9 8 10 8 9 6 11 14 14 6 13 14 11 9 6 7 3 7 7 3 2 5 18 5 6 7 6 8 12 7 9 15 14 13 13 16 15 12 8
12 11 9 8 6 5 4 1 1 6 2 1 1 2 2 1 1 1 2 4 5 4 5 1 1 1 1 1 4 5 2 5 1 3 4 2 8 0 5 6 1 1 4 2 2 7 4 4 9 10 11 11 8 7 9 15 10 11 1 7 6 6 6 7 4 7 9 1 4 1 2 8 22 7 7 11 12 11 11 11 11 12 13 14 14 14 13 8
13 12 8 8 5 2 2 0 5 3 3 1 1 2 1 2 2 0 1 5 5 2 1 2 1 1 1 1 2 7 2 1 1 2 1 3 1 1 5 9 10 4 3 5 13 1 4 1 6 9 7 7 9 17 4 10 8 4 1 5 3 5 4 1 1 3 2 5 11 7 3 4 15 5 13 14 11 10 12 12 13 15 15 15 15 15 15 10
12 11 9 7 6 3 1 1 0 4 1 1 1 1 1 2 1 1 2 4 2 1 3 2 3 0 1 2 2 1 0 1 1 1 4 1 3 1 5 4 0 1 4 6 14 3 2 2 5 7 7 10 8 1 7 12 8 4 3 4 4 3 3 1 1 1 3 2 17 6 7 7 22 12 6 2 7 11 11 15 16 16 17 16 14 14 15 10
12 12 11 9 5 3 1 2 5 2 3 1 1 1 1 1 1 1 1 8 1 2 1 0 1 2 2 5 2 2 4 2 2 1 1 2 1 3 0 0 1 3 6 5 7 7 3 2 3 4 8 4 3 1 1 1 2 3 3 2 5 5 2 2 3 2 3 8 12 12 10 9 16 5 11 10 8 11 11 6 8 9 9 13 9 10 12 12
13 13 12 13 5 4 4 3 6 3 3 1 1 0 1 1 2 2 10 5 2 1 1 0 2 3 5 6 6 1 0 1 0 1 0 1 1 2 2 0 2 3 1 3 9 11 5 0 2 4 4 4 3 2 4 1 1 1 1 2 4 7 4 2 3 2 3 14 3 15 15 15 12 3 3 7 2 11 13 11 12 12 12 14 11 10 12 9
14 14 14 12 6 3 7 4 4 3 4 3 0 0 0 2 0 8 8 1 1 2 3 1 2 3 4 4 5 3 6 0 3 4 7 4 3 6 9 10 4 3 4 6 9 2 8 13 6 2 3 11 3 2 3 3 2 3 4 5 2 6 5 3 2 1 6 13 3 7 10 1 23 10 2 5 7 4 6 9 11 12 12 11 11 12 9 6
14 14 16 13 8 5 6 3 5 4 2 2 7 2 3 4 8 13 5 2 4 4 3 4 4 6 2 3 3 2 2 4 2 3 5 1 5 6 2 3 4 4 7 2 5 3 9 3 6 5 2 6 8 8 2 2 7 7 8 6 5 5 4 4 5 4 5 7 4 7 4 13 10 3 11 11 12 10 10 10 10 10 13 11 12 10 6 6
14 13 9 8 11 10 4 8 8 8 6 5 6 6 7 3 10 3 4 6 8 0 2 1 1 1 3 9 5 7 2 5 7 5 6 2 3 3 5 7 5 6 1 0 4 4 5 11 8 8 5 6 14 14 18 11 8 13 4 12 12 9 5 2 6 10 9 10 2 1 6 8 4 5 8 17 17 13 9 12 12 11 9 10 5 1 1 3
9 11 9 6 8 8 7 8 7 7 8 7 4 4 7 11 4 1 1 2 2 3 6 1 2 4 5 2 3 5 6 3 6 4 6 6 5 5 7 8 12 5 1 3 3 3 11 14 6 15 1 9 13 13 6 5 1 3 3 1 1 7 6 9 8 5 4 5 8 3 8 4 6 1 2 4 5 6 7 11 8 9 9 9 5 6 6 6
3 4 8 4 5 7 10 8 8 8 8 6 6 3 11 10 5 3 5 5 3 3 4 4 1 4 4 2 2 5 5 4 2 4 3 6 5 6 2 3 9 18 10 10 5 4 1 7 2 3 6 7 6 2 5 8 5 3 8 8 13 2 6 5 5 3 1 1 17 2 7 9 7 13 9 17 12 11 5 6 5 9 10 10 11 8 6 6
2 1 4 4 6 6 11 10 9 8 7 7 4 9 9 4 3 1 2 1 1 2 3 1 3 5 2 4 3 4 4 1 3 4 5 1 5 7 3 7 7 12 16 12 5 4 7 8 1 6 4 2 2 1 0 2 4 7 3 8 1 2 4 4 5 3 2 7 12 6 12 13 5 15 3 6 1 4 5 8 9 12 13 12 14 6 8 10
1 2 4 4 7 11 13 12 11 7 5 6 9 14 2 4 2 6 4 7 7 1 1 2 5 3 3 5 5 3 2 7 2 4 4 6 7 5 7 3 9 14 21 16 10 4 5 12 9 4 3 3 1 1 4 0 1 5 4 1 6 4 3 3 3 5 7 9 7 11 12 10 11 16 5 8 5 7 11 13 12 12 12 14 11 5 7 4
2 2 4 4 6 13 12 13 12 10 5 6 7 11 3 9 2 1 3 2 0 3 8 5 6 2 3 3 3 0 2 5 4 5 4 4 8 5 8 7 4 14 15 18 10 5 1 8 4 1 5 1 1 4 8 5 1 1 2 2 1 1 3 5 8 4 4 15 8 14 12 15 10 4 5 7 10 7 10 6 8 12 13 13 10 8 9 8
3 2 5 1 3 11 13 13 8 7 5 12 10 10 1 2 1 3 4 2 3 4 5 3 4 7 4 8 2 5 3 5 3 4 4 2 8 1 1 4 2 2 13 15 13 11 9 8 14 1 4 1 3 5 8 11 10 4 3 4 2 1 3 3 3 4 7 9 9 9 12 13 14 5 2 3 5 6 9 10 10 12 12 11 11 11 7 8
1 2 2 2 9 12 12 8 5 8 7 2 4 4 3 3 1 3 1 7 1 3 2 1 1 3 2 5 8 2 2 3 3 4 3 4 4 8 4 7 8 10 6 3 6 2 1 2 13 2 1 5 8 2 10 9 11 9 11 11 12 8 4 6 11 2 3 7 6 7 15 8 16 6 1 0 3 4 8 9 10 10 11 11 7 7 8 7
4 5 3 7 13 16 14 8 3 3 2 8 9 4 4 6 5 8 4 5 5 3 1 1 1 3 2 8 7 5 2 3 4 4 3 5 5 4 3 6 8 5 7 4 5 3 2 1 4 7 8 11 7 8 7 12 8 7 9 7 6 3 3 6 14 7 3 4 4 9 10 13 16 11 4 3 2 4 6 6 8 9 10 9 9 8 7 7
4 5 2 10 12 16 9 8 7 5 4 3 3 4 1 2 4 3 5 3 5 6 3 6 9 6 7 8 4 5 5 7 5 8 5 7 12 16 12 18 10 8 5 4 5 3 3 3 3 8 5 5 5 1 1 2 2 2 1 2 2 6 7 8 7 6 10 6 8 7 13 7 12 19 9 14 5 5 5 7 10 9 7 5 6 5 6 6
2 1 1 4 13 8 8 8 5 9 6 3 3 5 2 3 3 3 7 6 4 2 6 4 3 14 11 9 6 8 8 6 9 17 9 10 10 15 22 24 24 6 3 2 2 4 4 3 5 3 4 5 8 9 3 1 1 3 3 5 7 6 7 8 5 2 10 9 13 12 17 8 13 19 12 16 18 6 7 7 6 8 5 5 6 6 7 9
2 2 3 3 6 6 9 5 9 6 10 11 10 10 7 3 6 14 14 10 4 7 2 4 8 2 3 5 9 10 11 17 7 7 8 6 7 3 7 10 12 12 9 5 6 4 4 2 1 2 5 10 10 9 10 11 7 2 2 7 11 15 17 10 10 9 15 12 18 14 14 13 20 21 23 22 22 20 14 11 9 8 7 7 8 9 9 7
2 3 2 3 6 7 7 4 8 8 8 9 11 12 11 12 4 9 11 15 14 8 9 3 2 0 7 4 7 9 11 10 15 4 8 5 4 4 9 14 11 12 14 17 10 5 3 6 10 11 11 11 12 11 7 4 1 4 6 11 15 16 18 16 12 13 15 13 16 17 18 20 19 17 23 27 24 23 24 21 16 12 10 13 10 7 7 9
4 3 3 3 2 10 10 6 9 9 9 6 8 4 14 15 9 5 13 7 9 14 7 10 6 6 4 8 12 13 14 12 14 13 12 9 8 7 4 7 8 14 18 12 11 5 5 6 14 19 22 20 21 21 21 18 18 17 16 16 13 11 11 14 14 18 15 13 19 14 21 20 20 19 23 27 29 29 26 20 17 12 13 14 10 9 10 9
4 3 2 2 3 3 9 10 10 9 6 12 11 5 9 10 9 9 2 12 5 6 5 1 16 16 17 15 11 10 5 13 11 14 12 14 12 10 14 11 12 11 12 5 10 8 7 12 14 16 23 23 26 26 26 24 21 20 20 19 21 19 15 16 18 19 17 17 22 16 17 20 20 20 23 26 27 29 27 22 18 15 10 7 6 7 9 12
1 3 4 5 1 4 2 2 4 4 5 7 3 5 9 12 13 7 3 2 4 4 12 12 11 16 20 19 17 15 12 11 11 12 12 10 15 12 10 5 13 16 13 8 4 5 4 11 10 17 22 20 22 25 25 27 24 23 22 22 22 22 23 22 23 22 22 22 21 20 21 25 19 17 19 24 26 24 21 20 19 16 17 16 9 8 11 15
3 2 3 3 1 5 7 3 3 6 7 5 4 6 4 7 10 8 4 1 3 4 4 17 14 14 13 17 18 19 17 19 18 14 4 4 7 5 10 10 9 2 7 9 5 3 12 7 15 17 15 18 19 21 21 24 23 26 24 24 23 24 24 25 24 21 20 22 23 27 27 26 19 21 24 25 24 20 19 22 26 26 25 22 14 10 13 15
2 1 1 4 4 4 3 3 3 5 5 3 9 7 8 7 10 5 8 4 9 8 4 11 10 14 12 12 11 14 11 13 15 14 14 12 12 3 5 3 4 6 3 3 3 3 10 10 7 8 11 13 12 20 23 24 25 27 26 24 24 25 25 23 21 20 20 23 25 24 20 19 20 26 26 27 27 25 24 26 26 25 27 21 11 13 16 17
1 3 1 1 6 5 7 2 1 2 9 9 7 2 2 3 7 6 8 6 8 3 5 9 9 11 9 11 11 10 13 14 13 14 15 16 16 14 13 13 11 7 2 6 4 5 7 4 7 8 15 16 13 19 21 23 22 22 22 23 32 31 27 23 22 21 22 22 22 18 21 20 24 21 22 21 22 26 26 24 25 27 23 17 16 16 17 16
Wind_Direction
15 12 10 7 4 2 360 359 356 355 353 352 351 350 351 354 355 354 355 353 352 353 347 347 348 340 338 339 342 0 333 55 298 253 231 244 165 143 143 129 156 158 161 114 88 96 229 164 253 273 342 107 255 108 240 130 151 64 181 138 270 220 257 231 225 222 219 154 252 262 220 151 282 310 262 57 280 188 253 220 278 287 12 346 70 109 125 135
14 11 8 5 3 1 358 355 354 353 351 348 348 347 346 346 345 347 349 349 348 350 347 342 344 338 343 343 355 354 7 100 272 264 240 345 113 126 130 148 160 166 134 97 146 171 132 226 230 193 132 217 266 168 132 258 106 131 199 128 233 197 234 180 252 272 355 284 197 219 226 167 234 147 274 197 279 230 260 251 211 250 270 54 85 119 133 143
12 10 8 4 2 360 358 356 353 351 349 346 345 344 344 341 339 341 342 344 342 344 343 337 339 339 338 347 345 347 342 356 315 268 275 18 86 103 112 157 166 168 156 156 176 160 175 208 202 149 199 193 253 200 102 252 117 234 145 246 245 216 250 299 275 264 234 190 190 125 259 173 250 146 114 209 249 284 227 233 225 223 233 184 158 153 151 158
10 7 5 2 0 358 357 355 352 349 348 346 343 342 340 339 339 340 337 337 339 339 339 336 330 337 336 339 350 333 62 33 270 244 273 172 111 118 161 188 191 178 110 125 156 143 228 334 244 157 182 186 276 102 143 242 124 261 130 207 236 228 275 268 281 283 327 67 198 153 1 317 271 208 154 219 316 254 243 218 205 216 226 193 179 172 167 168
6 3 1 359 358 356 354 354 352 349 347 345 344 340 338 337 335 334 335 333 333 334 336 334 333 331 334 345 338 65 42 40 272 311 298 294 141 164 166 180 190 178 153 150 102 60 179 233 25 2 127 257 311 103 240 223 201 127 210 216 224 277 302 268 248 207 141 145 117 341 319 252 259 100 212 168 226 259 219 225 216 229 226 182 179 191 176 179
4 0 358 356 355 354 352 351 350 349 346 345 343 340 337 335 335 333 333 332 329 329 332 331 329 330 326 338 51 62 71 319 241 301 304 314 244 171 185 176 183 208 147 94 121 23 67 314 105 85 292 137 245 196 257 197 164 250 265 242 231 230 239 277 271 248 165 260 195 295 235 333 247 257 236 196 220 246 153 191 211 215 225 201 183 169 185 188
2 359 355 353 352 352 350 349 347 346 345 342 341 340 336 335 331 333 329 328 327 325 329 329 323 316 318 15 99 77 122 268 333 229 180 200 229 213 191 166 151 140 125 108 131 146 182 225 121 227 191 225 265 223 262 252 200 212 246 325 283 243 242 257 278 260 227 202 238 204 51 247 269 279 237 224 238 244 242 244 214 203 210 166 158 181 189 194
2 355 352 351 350 349 348 346 344 343 342 341 338 337 335 331 332 328 327 326 326 324 327 327 319 304 308 122 52 8 49 252 249 214 195 186 218 218 153 74 111 104 123 174 160 185 148 200 231 216 234 213 222 186 264 348 114 219 263 248 265 275 257 292 284 261 238 231 229 324 277 243 213 238 347 256 253 248 244 235 253 242 145 150 177 189 200 204
1 353 350 349 348 347 345 343 340 339 338 337 335 333 332 330 327 326 324 323 324 322 326 325 323 311 279 84 116 5 261 239 195 180 151 173 211 103 40 139 114 133 181 200 198 179 130 252 207 186 246 316 263 316 286 0 302 223 236 284 279 276 289 284 298 278 252 266 176 229 247 251 240 305 273 258 258 247 234 246 239 238 239 200 194 195 196 204
355 351 349 348 346 344 343 341 337 335 334 333 330 328 327 326 322 321 321 321 319 321 323 330 318 303 333 92 60 276 258 170 158 159 166 169 142 103 24 254 144 171 143 247 227 175 179 217 190 211 162 249 232 247 322 173 230 198 266 260 277 274 299 274 259 276 244 236 172 214 257 259 228 148 277 260 239 254 227 240 241 227 229 223 208 204 203 202
347 345 348 344 343 341 338 335 332 331 330 330 328 324 322 319 317 316 317 316 316 312 323 324 329 310 87 117 148 230 210 114 180 154 154 145 125 143 218 226 152 143 200 300 236 205 206 186 189 127 32 225 31 296 289 224 300 312 316 322 293 299 291 274 273 265 276 275 194 192 249 294 276 162 238 264 129 188 204 242 241 227 230 228 221 210 211 210
340 335 339 338 336 334 333 330 327 326 326 325 323 319 316 314 312 311 311 312 310 307 312 312 297 303 288 125 204 226 165 203 150 171 156 147 160 193 180 159 117 158 135 219 280 309 251 206 140 161 218 43 267 323 280 261 24 260 352 312 288 311 301 277 258 267 155 255 159 154 301 287 208 219 241 247 257 273 257 262 246 231 232 231 229 225 215 219
321 322 333 332 327 326 323 325 324 322 321 320 316 314 312 310 307 305 306 309 307 302 305 303 308 256 147 291 232 251 312 261 145 142 102 133 135 149 166 153 171 157 159 160 237 266 21 112 130 167 244 246 208 229 204 43 285 310 52 210 299 314 301 270 269 247 190 244 142 118 274 252 245 235 247 256 248 251 253 251 247 238 234 234 231 228 232 232
297 312 333 325 321 318 310 315 319 319 319 315 313 310 309 304 300 300 300 298 299 300 311 282 224 305 115 246 244 260 255 14 119 112 190 151 127 227 6 241 185 209 177 182 216 217 30 72 124 190 165 180 250 321 350 339 39 259 247 117 236 318 265 278 178 249 163 180 156 136 204 267 258 257 248 255 242 230 242 244 243 240 239 236 234 233 235 238
301 325 326 321 316 310 308 314 315 317 314 313 310 306 302 299 297 295 294 297 290 312 357 68 122 60 122 264 10 310 317 80 176 225 182 151 150 71 240 248 215 211 187 156 163 194 129 79 74 66 258 295 24 307 300 350 318 232 11 260 312 195 270 279 246 152 197 191 207 120 245 249 259 264 270 252 238 214 233 244 241 240 240 238 236 237 240 243
321 323 319 314 311 304 311 313 315 314 313 308 307 301 296 292 293 290 287 278 287 262 211 65 200 142 342 289 254 11 49 166 238 200 214 147 168 193 187 170 153 125 91 337 126 131 71 113 165 195 300 10 185 118 348 5 315 284 196 263 262 213 254 327 289 215 201 119 237 171 215 258 283 255 258 267 231 224 224 244 248 243 242 241 240 239 241 251
317 317 306 302 307 300 312 312 315 315 311 311 312 304 292 288 289 283 265 268 305 179 148 144 109 158 239 243 97 220 223 224 345 106 174 150 150 168 116 100 181 179 60 49 34 94 25 125 263 52 40 205 163 110 55 313 282 266 195 222 224 241 277 264 290 21 134 150 198 239 241 243 255 286 290 304 226 220 223 238 243 245 244 238 239 240 241 242
324 313 306 303 306 303 309 312 316 314 319 318 316 301 296 292 290 348 92 110 191 155 259 218 182 60 271 27 257 235 143 141 193 176 115 282 96 139 121 124 117 123 78 48 338 152 223 177 104 195 335 228 165 141 162 234 225 234 167 239 277 258 239 251 274 263 129 224 191 224 239 256 261 265 270 265 273 235 228 231 236 243 245 246 240 241 238 243
307 297 300 301 299 300 309 312 315 318 321 325 314 298 286 311 68 139 92 110 98 18 12 204 134 166 232 224 216 63 58 221 107 119 208 138 214 106 69 83 112 122 175 126 281 142 307 109 51 96 235 221 211 187 199 226 224 221 216 240 239 250 266 257 253 230 168 193 224 214 223 239 252 259 259 264 260 257 254 243 254 253 251 250 247 248 243 237
299 301 302 303 299 301 309 313 314 318 329 332 338 340 26 12 9 26 356 330 233 197 191 187 199 257 350 338 162 282 228 2 121 248 119 232 117 131 101 153 35 107 127 193 187 207 142 177 176 192 226 225 216 199 219 234 240 261 269 268 256 260 267 263 271 243 201 225 221 230 235 241 251 250 250 252 264 265 260 246 241 241 248 251 252 251 252 253
289 292 295 298 300 306 314 319 319 320 326 328 321 8 62 316 326 285 322 255 244 268 273 240 198 213 231 141 143 146 147 249 145 227 193 138 113 120 222 119 115 192 227 180 162 254 127 198 207 215 226 226 200 204 220 240 242 244 254 258 264 238 265 254 266 226 224 195 256 233 246 246 249 255 255 258 257 257 254 253 242 246 240 246 252 257 255 251
278 286 292 299 306 313 321 323 321 320 325 302 28 40 41 87 186 255 108 303 313 249 247 255 266 262 307 176 205 178 87 207 250 225 248 145 189 168 230 166 161 215 131 189 298 279 205 216 218 225 231 257 230 209 213 215 233 241 239 251 268 255 255 272 254 255 246 178 262 255 252 249 252 255 259 246 238 244 245 242 250 244 251 253 254 253 256 258
270 276 284 294 303 312 323 322 320 322 343 24 17 27 53 254 339 265 119 255 267 258 245 241 246 230 243 265 241 172 194 210 233 174 196 162 139 218 147 170 209 137 155 173 207 216 259 239 234 223 223 239 255 233 235 255 252 248 250 257 247 253 271 284 222 15 192 185 239 229 258 261 270 267 261 252 238 241 244 245 251 248 248 250 252 250 258 262
271 277 281 291 303 314 318 322 316 333 7 323 58 94 223 189 106 85 134 243 275 299 214 222 216 213 214 207 203 164 205 241 206 225 206 158 168 176 163 191 182 156 212 201 209 218 228 203 214 205 212 219 240 240 223 236 260 239 232 239 257 249 241 232 272 330 267 293 297 301 280 269 236 257 260 251 237 246 253 255 257 260 247 250 260 262 255 255
273 276 284 290 303 317 313 319 4 334 315 10 103 217 202 207 158 148 57 300 291 269 302 317 178 242 225 36 116 172 267 287 199 139 178 163 147 94 230 142 139 222 218 214 234 241 252 241 131 173 215 223 232 252 211 197 253 256 233 211 236 244 255 258 282 337 330 311 243 198 305 266 205 222 241 247 257 231 239 238 249 250 251 249 262 254 252 246
265 273 281 286 294 315 310 352 310 328 354 59 202 235 247 164 207 177 76 296 280 253 18 223 99 258 55 189 101 179 40 268 255 218 150 213 90 164 108 211 166 237 207 217 228 236 231 219 202 217 201 221 215 230 218 178 239 260 253 192 228 238 247 271 284 350 280 257 298 110 214 291 143 241 225 243 233 239 246 221 237 245 246 245 246 258 252 223
255 262 271 279 290 339 26 291 317 341 39 309 228 226 251 201 185 98 346 295 303 195 171 283 61 248 30 308 134 80 241 260 17 62 141 335 185 345 198 220 257 250 148 159 352 266 197 220 191 216 215 217 220 242 232 188 224 255 231 181 200 235 249 251 229 193 252 234 275 280 109 288 291 222 218 203 211 219 235 243 244 242 241 240 244 246 254 222
245 248 252 263 249 115 171 306 355 347 238 228 179 261 242 265 100 75 86 307 280 97 113 242 235 337 82 299 349 179 218 134 79 227 343 290 116 320 201 211 203 175 173 117 239 243 180 211 192 216 211 199 208 223 192 169 192 239 237 154 185 204 217 152 172 220 235 6 279 169 125 284 260 257 205 188 211 232 235 236 238 237 240 240 241 248 250 232
232 233 226 221 224 177 193 161 149 258 224 166 225 269 315 46 73 64 121 248 245 111 315 90 286 13 350 10 243 80 13 3 213 322 308 5 34 137 212 244 136 288 291 181 243 261 315 178 217 180 164 216 221 59 156 176 214 259 122 79 75 68 67 74 184 270 331 38 270 163 157 225 281 252 214 186 202 214 228 229 232 232 231 236 232 239 251 252
226 221 209 189 152 161 213 182 225 225 129 139 225 12 25 48 48 52 349 250 38 284 78 240 122 224 96 140 277 259 236 327 70 336 355 149 320 3 342 228 171 262 265 297 265 241 237 326 195 133 208 219 115 125 110 268 211 113 81 74 6 26 27 23 77 95 26 255 260 155 193 178 271 287 175 136 206 205 215 235 249 251 255 261 250 232 239 244
224 217 200 169 181 195 141 229 233 189 165 178 197 42 117 41 124 110 238 220 347 213 57 78 191 77 133 155 222 220 204 110 313 100 155 9 14 47 347 9 41 38 16 316 281 266 253 54 173 254 83 77 104 78 354 70 75 112 112 125 30 324 18 34 347 48 180 267 208 179 181 183 230 282 256 191 241 200 183 203 222 237 238 241 248 237 235 231
227 217 196 182 198 165 181 235 179 176 176 179 153 43 38 254 356 205 228 27 287 239 164 221 228 156 217 287 31 174 179 3 182 169 182 187 160 168 202 194 150 153 286 221 254 25 257 236 215 62 215 156 148 119 320 8 12 121 90 71 219 268 23 318 29 306 198 239 212 213 174 13 236 242 281 305 275 245 216 199 211 218 234 241 253 248 234 222
228 221 201 198 191 216 214 149 137 149 139 72 68 34 84 129 239 234 248 15 264 146 271 132 195 177 194 119 265 213 201 200 192 208 140 195 161 250 307 231 213 150 241 252 237 313 275 271 194 224 37 217 128 191 237 329 217 131 159 161 136 251 227 259 259 240 298 280 243 192 165 237 275 311 199 232 237 220 208 219 221 216 218 226 239 247 232 203
235 222 213 196 201 203 183 147 153 147 103 77 93 59 69 122 238 16 172 192 235 279 108 185 111 154 140 191 230 152 245 235 145 214 167 213 152 257 255 233 210 271 172 191 257 179 301 299 223 132 234 182 180 199 203 204 151 198 121 152 195 175 146 210 226 242 240 252 287 211 117 230 8 249 210 207 225 220 207 215 220 223 234 223 251 313 187 177
240 228 219 213 210 208 165 163 162 135 109 116 94 116 158 227 259 234 258 280 265 279 270 348 144 163 265 269 254 217 192 268 177 127 185 162 222 192 201 201 212 164 120 227 246 97 225 242 267 178 212 148 182 214 186 96 64 212 161 81 39 230 173 227 230 250 292 355 312 198 214 201 233 233 280 286 317 295 236 231 228 239 239 249 246 204 193 197
224 209 204 201 174 203 167 157 156 122 122 122 117 133 214 201 222 167 232 197 275 312 317 320 118 205 251 289 305 223 260 219 237 153 251 212 214 211 197 171 185 190 172 199 175 229 307 257 293 179 29 171 188 81 193 153 212 240 117 189 215 172 191 264 331 287 132 332 262 161 276 273 309 279 221 236 219 242 250 257 255 245 245 236 235 216 200 202
210 172 202 186 204 158 166 157 152 133 142 158 146 217 228 284 193 192 289 133 120 92 20 23 247 187 196 238 223 213 250 197 246 156 250 122 289 213 217 235 173 191 208 191 285 236 229 261 16 164 232 296 177 146 10 331 139 104 189 232 67 94 126 144 213 329 224 222 268 262 254 289 350 289 1 59 93 262 272 252 235 235 232 236 240 206 205 204
278 229 241 217 196 166 161 158 134 133 135 165 198 227 130 220 248 212 316 323 311 314 23 142 278 260 264 257 280 212 241 192 214 153 240 184 259 178 184 224 193 189 210 219 217 252 202 261 241 206 161 248 290 137 318 330 120 153 189 250 141 253 254 256 93 238 258 249 258 265 284 262 239 259 286 313 293 255 230 229 228 235 240 239 245 241 241 234
237 266 280 237 191 157 151 145 141 139 144 191 209 244 210 228 165 173 180 87 205 312 277 215 233 250 303 259 305 210 137 217 172 210 216 211 236 174 192 184 255 215 211 204 218 237 156 244 233 296 158 171 48 131 217 181 309 71 52 339 203 114 198 156 198 176 175 253 265 270 276 271 251 236 265 219 231 232 243 249 241 239 237 241 246 232 221 212
220 235 239 359 87 131 139 136 136 157 167 210 209 227 90 12 290 272 237 206 245 221 226 231 217 259 271 265 0 276 265 251 226 251 210 243 229 246 208 245 290 240 229 201 202 202 244 178 251 166 306 51 241 185 202 166 185 204 228 263 302 226 220 134 282 173 208 235 225 259 268 267 272 181 143 233 213 214 213 216 228 231 236 236 239 236 219 217
247 243 252 70 116 121 121 117 133 183 206 284 246 243 255 248 266 264 62 99 68 328 247 318 316 279 45 14 297 24 301 7 345 315 267 302 225 278 37 63 17 8 338 323 278 296 317 181 242 66 313 226 256 169 183 185 180 186 191 214 209 200 231 244 254 213 241 228 231 232 251 266 272 116 88 258 227 201 219 204 218 231 230 240 242 244 227 225
209 233 206 141 142 140 133 164 217 181 192 202 220 185 228 199 251 247 261 245 187 223 82 144 251 247 236 251 247 272 295 293 283 276 281 262 315 322 278 10 27 23 4 310 222 294 215 219 276 229 220 240 243 235 207 191 186 186 174 227 204 222 232 222 252 233 284 253 267 254 271 241 277 265 292 295 288 210 220 226 234 239 238 222 223 229 243 228
218 237 6 159 168 157 149 197 182 197 218 243 4 285 189 286 223 209 241 173 236 185 208 213 213 229 218 238 214 233 211 245 183 239 226 271 277 279 278 297 297 349 344 314 337 323 33 278 255 276 302 309 310 87 193 237 133 38 294 190 154 214 196 238 251 276 269 280 263 258 244 278 269 280 301 300 288 243 226 202 225 241 259 266 254 256 257 263
254 242 272 233 182 186 180 197 210 214 224 254 230 252 174 224 222 259 240 214 194 202 207 205 233 212 238 199 190 226 181 270 208 230 248 228 250 244 259 272 287 296 28 241 21 300 355 306 76 330 311 322 320 323 290 83 94 194 172 209 213 236 239 240 260 357 269 241 263 266 265 268 270 284 290 287 290 275 260 245 226 226 249 269 277 264 250 247
304 283 216 202 218 192 210 187 222 195 212 226 222 233 239 242 208 228 234 239 195 219 250 248 223 174 237 182 220 213 199 211 258 217 207 203 241 242 267 247 255 265 237 201 195 90 234 235 6 225 238 245 244 236 246 248 215 237 220 224 220 225 234 244 247 234 246 231 234 242 256 248 260 271 281 273 272 269 251 239 244 223 224 234 240 242 245 247
214 266 232 196 200 235 255 234 243 226 214 223 236 231 228 240 231 226 220 248 230 229 219 246 9 174 213 182 232 224 235 216 220 218 197 222 239 260 224 236 216 227 231 225 160 113 206 167 205 213 218 235 240 248 255 121 83 229 238 227 234 229 230 230 237 240 241 241 235 234 241 253 253 260 267 272 269 267 266 260 246 247 256 248 246 262 268 257
304 271 227 249 212 219 238 213 230 206 226 185 240 149 222 230 236 265 182 262 197 229 232 219 222 205 231 212 228 243 229 242 227 239 227 227 217 234 242 201 223 226 229 236 171 134 143 205 212 221 224 229 237 241 247 245 245 247 250 246 240 237 234 229 225 237 235 257 254 231 239 246 247 249 257 266 270 271 269 268 269 259 244 250 250 238 238 256
228 248 285 233 271 239 218 233 236 235 232 212 223 208 244 243 211 233 198 227 230 191 204 281 224 221 232 228 239 247 214 237 225 238 237 233 256 249 269 241 247 229 232 231 169 188 184 234 221 221 234 226 232 237 242 248 247 248 246 250 252 245 237 239 239 240 236 236 251 244 241 246 247 244 250 254 261 264 271 280 278 271 265 245 234 245 254 257
243 304 283 326 304 286 270 345 359 311 287 238 338 258 250 243 251 226 212 340 217 223 201 247 211 220 225 231 236 249 243 259 245 226 232 225 217 230 250 269 239 227 229 223 183 194 192 233 229 222 240 230 232 236 238 243 248 250 248 247 248 251 249 242 245 244 238 244 251 258 256 253 252 255 250 253 257 267 278 282 283 277 266 260 234 233 253 267
295 276 299 18 4 288 306 337 356 329 317 303 288 183 232 238 268 289 297 211 282 278 238 240 242 236 237 238 230 235 229 237 250 257 246 273 281 213 248 229 271 299 201 212 196 226 207 218 194 232 241 238 232 236 236 239 240 246 244 246 244 249 252 249 250 251 258 258 255 254 253 257 256 257 259 264 268 271 275 276 274 274 272 265 263 267 271 273
254 53 288 336 316 261 260 284 278 293 282 225 241 249 251 271 268 293 280 271 270 269 267 272 317 329 340 315 304 283 304 324 327 314 328 320 292 324 299 323 260 252 154 226 188 248 196 251 225 241 245 242 225 236 232 233 235 238 243 244 245 243 246 245 245 237 236 245 248 251 253 253 251 249 250 251 257 260 258 258 263 267 267 276 287 280 278 276
64 280 216 210 257 246 263 285 254 4 253 238 248 314 342 329 335 340 311 238 233 263 348 344 347 320 311 318 308 321 330 311 303 308 303 292 282 272 266 268 276 263 243 223 206 210 191 216 229 234 252 242 232 233 233 234 238 237 230 234 238 236 233 241 244 246 238 239 245 245 247 241 245 242 250 248 248 249 251 253 256 260 272 284 280 275 274 277